Weather History for KSMQ - January, 2014

Change the Weather History Date:

Sunday, January 26, 2014

  Actual Average Record
Temperature  
Mean Temperature 19 °F -  
Max Temperature 24 °F 40 °F 74 °F (1950)
Min Temperature 14 °F 22 °F -4 °F (1961)
Degree Days  
Heating Degree Days 46    
Moisture  
Dew Point 6 °F    
Average Humidity 55    
Maximum Humidity 81    
Minimum Humidity 36    
Precipitation  
Precipitation 0.00 in - - ()
Sea Level Pressure  
Sea Level Pressure 29.81 in    
Wind  
Wind Speed 6 mph (West)    
Max Wind Speed 13 mph    
Max Gust Speed 25 mph    
Visibility 10 miles    
Events      
Averages and records for this station are not official NWS values.
T = Trace of Precipitation, MM = Missing Value Source: NWS Daily Summary

Daily Weather History Graph

Daily Weather History Graph

Search for Another Location

Airport or City:

Trip Planner

Search our weather history database for the weather conditions in past years. The results will help you decide how hot, cold, wet, or windy it might be!

Date:

Astronomy

Jan. 26, 2014 Rise Set
Actual Time 7:13 AM EST 5:09 PM EST
Civil Twilight 6:44 AM EST 5:38 PM EST
Nautical Twilight 6:11 AM EST 6:11 PM EST
Astronomical Twilight 5:39 AM EST 6:43 PM EST
Moon 2:48 AM EST (1/26) 12:56 PM EST (1/26)
Length of Visible Light 10h 54m
Length of Day
9h 55m
Waning Crescent, 24% of the Moon is Illuminated
Jan 26
Waning Crescent
Jan 30
New
Feb 6
First Quarter
Feb 14
Full
Feb 22
Last Quarter

Hourly Weather History & Observations

Time (EST) Temp. Windchill Dew Point Humidity Pressure Visibility Wind Dir Wind Speed Gust Speed Precip Events Conditions
12:53 AM 21.0 °F 12.4 °F 16.0 °F 81% 29.53 in 10.0 mi WNW 6.9 mph 17.3 mph N/A   Partly Cloudy
1:53 AM 21.0 °F 10.6 °F 12.9 °F 71% 29.59 in 10.0 mi WNW 9.2 mph 18.4 mph 0.00 in   Scattered Clouds
2:53 AM 21.0 °F 10.6 °F 6.1 °F 53% 29.67 in 10.0 mi WNW 9.2 mph 18.4 mph 0.00 in   Mostly Cloudy
3:53 AM 19.0 °F 6.8 °F 1.0 °F 46% 29.71 in 8.0 mi WNW 11.5 mph 25.3 mph 0.00 in   Clear
4:53 AM 18.0 °F 8.7 °F 1.0 °F 48% 29.74 in 10.0 mi Variable 6.9 mph - 0.00 in   Mostly Cloudy
5:53 AM 15.1 °F 9.4 °F 3.0 °F 59% 29.78 in 10.0 mi West 3.5 mph - N/A   Clear
6:53 AM 14.0 °F 8.2 °F -2.9 °F 47% 29.82 in 10.0 mi WNW 3.5 mph - N/A   Clear
7:53 AM 16.0 °F 4.4 °F -2.9 °F 43% 29.86 in 10.0 mi WNW 9.2 mph 17.3 mph N/A   Clear
8:53 AM 18.0 °F 8.7 °F -4.0 °F 38% 29.90 in 10.0 mi Variable 6.9 mph - N/A   Clear
9:53 AM 19.0 °F 10.0 °F -4.0 °F 36% 29.92 in 9.0 mi Variable 6.9 mph 18.4 mph N/A   Clear
10:53 AM 19.9 °F 9.3 °F -2.0 °F 38% 29.91 in 10.0 mi WSW 9.2 mph - 0.00 in   Clear
11:53 AM 19.9 °F 7.3 °F -0.0 °F 42% 29.86 in 10.0 mi WNW 12.7 mph 19.6 mph N/A   Clear
12:53 PM 21.0 °F 14.6 °F 1.0 °F 42% 29.86 in 10.0 mi Variable 4.6 mph - N/A   Mostly Cloudy
1:53 PM 21.0 °F 14.6 °F 1.9 °F 44% 29.86 in 10.0 mi Variable 4.6 mph - N/A   Overcast
2:53 PM 21.9 °F - 3.0 °F 44% 29.86 in 10.0 mi Calm Calm - N/A   Overcast
3:53 PM 21.9 °F 14.5 °F 6.1 °F 51% 29.85 in 10.0 mi Variable 5.8 mph - N/A   Mostly Cloudy
4:53 PM 21.9 °F 17.2 °F 6.1 °F 51% 29.85 in 10.0 mi South 3.5 mph - N/A   Overcast
5:53 PM 21.9 °F 17.2 °F 10.0 °F 60% 29.86 in 10.0 mi SSE 3.5 mph - N/A   Overcast
6:53 PM 23.0 °F 18.4 °F 12.0 °F 63% 29.84 in 10.0 mi SSE 3.5 mph - N/A   Overcast
7:53 PM 24.1 °F - 14.0 °F 65% 29.84 in 10.0 mi Calm Calm - N/A   Overcast
8:53 PM 23.0 °F - 15.1 °F 72% 29.84 in 10.0 mi Calm Calm - N/A   Overcast
9:53 PM 23.0 °F - 16.0 °F 74% 29.83 in 10.0 mi Calm Calm - N/A   Overcast
10:53 PM 23.0 °F - 15.1 °F 72% 29.80 in 10.0 mi Calm Calm - N/A   Overcast
11:53 PM 21.9 °F - 15.1 °F 75% 29.78 in 10.0 mi Calm Calm - N/A   Mostly Cloudy